Location: Sternwarte_Laufen
(47.9344°N, 12.9346°E)
Time: 05:02:38
(UTC+02:00)

ISS - Pass Details

Date: 19 May 2017
Orbit: 402 x 409 km, 51.6° (Epoch: 23 May)

Event Time Altitude Azimuth Distance (km) Brightness Sun altitude
Exits shadow 01:33:32 32° 71° (ENE) 725 -2.4 -22.0°
Drops below altitude 10° 01:35:26 10° 68° (ENE) 1,467 -0.6 -22.0°
Sets 01:37:31 0° 67° (ENE) 2,327 0.4 -21.9°
